AC1IX Weather Reports


time (UTC)temp
C
wind
direction
speed
KPH
gust
KPH
rain 1hr
cm
rain 24hr
cm
rain mn
cm
humidity
%
barometer
mb
20260504130643 13 343 1.6 1.6 0.00 0.00 0.00 50 1010.5
20260504130140 13 300 6.4 8.0 0.00 0.00 0.00 50 1010.7
20260504120104 9 284 0.0 1.6 0.00 0.00 0.00 70 1011.1
20260504110531 5 283 1.6 1.6 0.00 0.00 0.00 82 1010.9
20260504100453 2 291 0.0 0.0 0.00 0.00 0.00 91 1010.7
20260504081847 4 293 0.0 0.0 0.00 0.00 0.00 86 1011.0
20260504081343 5 291 0.0 0.0 0.00 0.00 0.00 86 1010.9
20260504080839 5 293 0.0 0.0 0.00 0.00 0.00 86 1011.1
20260504080337 5 292 0.0 0.0 0.00 0.00 0.00 86 1011.0
20260504070304 5 291 0.0 0.0 0.00 0.00 0.00 80 1011.1
20260504060224 5 292 0.0 0.0 0.00 0.00 0.00 75 1011.2
20260504050652 6 284 0.0 0.0 0.00 0.00 0.00 74 1011.6
20260504050149 6 291 0.0 0.0 0.00 0.00 0.00 73 1011.6
20260504045646 6 293 0.0 0.0 0.00 0.00 0.00 71 1011.7
20260504045146 6 293 0.0 0.0 0.00 0.00 0.00 71 1011.8
20260504044644 6 292 0.0 0.0 0.00 0.00 0.00 69 1011.9
20260504044140 7 293 0.0 0.0 0.00 0.00 0.00 68 1011.8
20260504043638 7 293 0.0 0.0 0.00 0.00 0.00 68 1011.6
20260504043135 7 286 0.0 0.0 0.00 0.00 0.00 65 1011.8
20260504042632 7 293 0.0 0.0 0.00 0.00 0.00 65 1011.6
20260504042129 7 287 0.0 0.0 0.00 0.00 0.00 65 1011.5
20260504041624 7 292 0.0 0.0 0.00 0.00 0.00 63 1011.7
20260504041121 7 298 0.0 0.0 0.00 0.00 0.00 64 1011.4
20260504040618 7 271 1.6 1.6 0.00 0.00 0.00 63 1011.3
20260504040115 7 297 0.0 0.0 0.00 0.00 0.00 64 1011.6
20260504035612 7 325 0.0 1.6 0.00 0.00 0.00 64 1011.2
20260504035108 7 296 1.6 1.6 0.00 0.00 0.00 64 1011.3
20260504034606 7 293 0.0 0.0 0.00 0.00 0.00 64 1011.1
20260504034103 7 297 0.0 0.0 0.00 0.00 0.00 61 1011.4
20260504033601 7 298 0.0 0.0 0.00 0.00 0.00 63 1011.3
20260504033058 7 301 0.0 0.0 0.00 0.00 0.00 62 1011.2
20260504032555 7 297 0.0 0.0 0.00 0.00 0.00 61 1011.4
20260504032052 7 295 0.0 0.0 0.00 0.00 0.00 61 1011.2
20260504031548 7 296 0.0 0.0 0.00 0.00 0.00 61 1011.0
20260504031044 7 292 0.0 0.0 0.00 0.00 0.00 59 1011.0
20260504030542 7 290 0.0 0.0 0.00 0.00 0.00 57 1011.2
20260504030038 7 294 0.0 0.0 0.00 0.00 0.00 56 1011.2
20260504025535 7 296 0.0 0.0 0.00 0.00 0.00 56 1011.0
20260504025032 7 294 1.6 1.6 0.00 0.00 0.00 53 1011.2
20260504024529 8 301 0.0 0.0 0.00 0.00 0.00 54 1011.1
20260504024026 8 286 1.6 3.2 0.00 0.00 0.00 51 1011.0
20260504023522 8 290 0.0 0.0 0.00 0.00 0.00 55 1011.2
20260504023018 8 283 1.6 1.6 0.00 0.00 0.00 53 1011.2
20260504022514 8 289 0.0 1.6 0.00 0.00 0.00 52 1011.1
20260504022011 8 298 0.0 0.0 0.00 0.00 0.00 51 1011.3
20260504021509 8 294 0.0 1.6 0.00 0.00 0.00 51 1011.3
20260504021006 8 303 0.0 1.6 0.00 0.00 0.00 49 1011.3
20260504020502 8 293 1.6 1.6 0.00 0.00 0.00 49 1011.2
20260504015959 8 276 6.4 8.0 0.00 0.00 0.00 48 1011.1
20260504015455 8 273 3.2 4.8 0.00 0.00 0.00 50 1011.2
20260504014951 8 263 4.8 8.0 0.00 0.00 0.00 49 1011.2
20260504014447 8 304 1.6 1.6 0.00 0.00 0.00 51 1011.2
20260504013944 7 268 1.6 3.2 0.00 0.00 0.00 50 1011.5
20260504013443 7 7 1.6 3.2 0.00 0.00 0.00 53 1011.0
20260504012938 7 300 0.0 1.6 0.00 0.00 0.00 52 1011.1
20260504012437 7 291 0.0 0.0 0.00 0.00 0.00 52 1011.1
20260504011934 7 292 0.0 1.6 0.00 0.00 0.00 51 1010.9
20260504011430 7 291 0.0 1.6 0.00 0.00 0.00 51 1010.9
20260504010926 7 316 3.2 3.2 0.00 0.00 0.00 51 1010.9
20260504010422 7 296 0.0 0.0 0.00 0.00 0.00 51 1010.5
20260504005919 7 311 0.0 1.6 0.00 0.00 0.00 49 1010.6
20260504005415 8 298 0.0 0.0 0.00 0.00 0.00 48 1010.5
20260504004913 8 293 1.6 1.6 0.00 0.00 0.00 47 1010.4
20260504004411 8 260 1.6 1.6 0.00 0.00 0.00 46 1010.4
20260504003907 8 296 0.0 0.0 0.00 0.00 0.00 46 1010.3
20260504003404 8 299 3.2 4.8 0.00 0.00 0.00 47 1010.2
20260504002900 7 297 1.6 1.6 0.00 0.00 0.00 46 1010.2
20260504002357 7 296 0.0 1.6 0.00 0.00 0.00 46 1010.0
20260504001855 7 295 0.0 0.0 0.00 0.00 0.00 46 1010.0
20260504001352 8 286 1.6 1.6 0.00 0.00 0.00 46 1010.1
20260504000849 8 293 0.0 1.6 0.00 0.00 0.00 48 1009.6
20260504000346 8 279 1.6 1.6 0.00 0.00 0.00 47 1009.7
20260503235844 8 310 1.6 1.6 0.00 0.00 0.00 45 1009.9
20260503235341 8 287 1.6 3.2 0.00 0.00 0.00 44 1009.6
20260503234838 8 290 0.0 0.0 0.00 0.00 0.00 46 1009.4
20260503234336 8 296 0.0 0.0 0.00 0.00 0.00 44 1009.3
20260503233833 8 287 1.6 1.6 0.00 0.00 0.00 46 1009.3
20260503233329 8 279 1.6 3.2 0.00 0.00 0.00 43 1009.2
20260503232826 9 283 0.0 1.6 0.00 0.00 0.00 41 1009.4
20260503232323 9 290 0.0 1.6 0.00 0.00 0.00 41 1009.1
20260503231821 9 284 1.6 1.6 0.00 0.00 0.00 42 1009.4
20260503231318 9 273 3.2 3.2 0.00 0.00 0.00 42 1009.0
20260503230814 10 272 0.0 1.6 0.00 0.00 0.00 43 1009.2
20260503230311 10 294 0.0 0.0 0.00 0.00 0.00 43 1009.2
20260503225809 10 297 1.6 1.6 0.00 0.00 0.00 42 1009.1
20260503225304 10 292 0.0 0.0 0.00 0.00 0.00 44 1009.2
20260503224801 10 308 3.2 3.2 0.00 0.00 0.00 43 1008.9
20260503224258 10 296 1.6 1.6 0.00 0.00 0.00 42 1009.0
20260503223756 10 296 0.0 0.0 0.00 0.00 0.00 42 1009.0
20260503223253 10 273 0.0 1.6 0.00 0.00 0.00 40 1009.0
20260503222749 10 263 3.2 3.2 0.00 0.00 0.00 41 1009.2
20260503222247 11 259 3.2 3.2 0.00 0.00 0.00 42 1008.9
20260503221746 11 298 0.0 1.6 0.00 0.00 0.00 42 1008.9
20260503221243 10 269 3.2 3.2 0.00 0.00 0.00 43 1008.9
20260503220739 10 294 1.6 3.2 0.00 0.00 0.00 42 1008.9
20260503220236 10 291 3.2 4.8 0.00 0.00 0.00 43 1008.9
20260503215733 10 255 1.6 3.2 0.00 0.00 0.00 41 1009.0
20260503215230 11 265 8.0 14.5 0.00 0.00 0.00 42 1009.0
20260503214728 11 304 1.6 3.2 0.00 0.00 0.00 43 1009.0
20260503214225 11 273 0.0 1.6 0.00 0.00 0.00 42 1009.0
20260503213723 11 288 1.6 1.6 0.00 0.00 0.00 41 1009.3
20260503213220 11 309 1.6 1.6 0.00 0.00 0.00 43 1009.1
20260503212716 11 288 3.2 3.2 0.00 0.00 0.00 40 1009.1
20260503212214 11 296 1.6 3.2 0.00 0.00 0.00 42 1009.1
20260503211712 11 278 4.8 4.8 0.00 0.00 0.00 42 1009.1
20260503211208 11 270 3.2 3.2 0.00 0.00 0.00 42 1009.1
20260503210703 11 301 3.2 3.2 0.00 0.00 0.00 43 1009.0
20260503210201 10 243 6.4 8.0 0.00 0.00 0.00 42 1009.1
20260503205655 10 300 3.2 3.2 0.00 0.00 0.00 42 1009.1
20260503205152 10 295 3.2 4.8 0.00 0.00 0.00 45 1009.3
20260503204649 10 294 3.2 3.2 0.00 0.00 0.00 44 1009.2
20260503204147 10 271 3.2 3.2 0.00 0.00 0.00 45 1009.3
20260503203644 10 301 3.2 4.8 0.00 0.00 0.00 45 1009.6
20260503203141 9 303 0.0 0.0 0.00 0.00 0.00 49 1009.3
20260503202638 10 281 6.4 8.0 0.00 0.00 0.00 46 1009.3
20260503202137 10 280 3.2 4.8 0.00 0.00 0.00 45 1009.4
20260503201634 9 341 3.2 4.8 0.00 0.00 0.00 48 1009.3
20260503201131 10 251 6.4 9.7 0.00 0.00 0.00 44 1009.3
20260503200627 10 114 3.2 4.8 0.00 0.00 0.00 45 1009.5
20260503200124 9 293 1.6 1.6 0.00 0.00 0.00 49 1009.4
20260503195621 9 321 3.2 4.8 0.00 0.00 0.00 47 1009.7
20260503195118 9 294 0.0 1.6 0.00 0.00 0.00 47 1009.6
20260503194610 9 299 3.2 3.2 0.00 0.00 0.00 48 1009.6
20260503194110 9 312 6.4 8.0 0.00 0.00 0.00 47 1009.6
20260503193607 9 259 0.0 1.6 0.00 0.00 0.00 49 1009.9
20260503193102 9 321 3.2 3.2 0.00 0.00 0.00 49 1009.7
20260503192558 10 273 3.2 3.2 0.00 0.00 0.00 46 1009.8
20260503192054 9 295 1.6 1.6 0.00 0.00 0.00 46 1009.7
20260503191551 8 1 3.2 3.2 0.00 0.00 0.00 49 1009.8
20260503191048 8 332 1.6 3.2 0.00 0.00 0.00 49 1010.0
20260503190545 8 354 4.8 4.8 0.00 0.00 0.00 46 1009.9
20260503190042 8 284 1.6 3.2 0.00 0.00 0.00 47 1010.2
20260503185539 8 292 1.6 1.6 0.00 0.00 0.00 47 1009.9
20260503185038 8 321 6.4 9.7 0.00 0.00 0.00 47 1009.9
20260503184535 8 356 3.2 3.2 0.00 0.00 0.00 47 1010.1
20260503184031 8 279 4.8 8.0 0.00 0.00 0.00 47 1009.8
20260503183528 9 268 4.8 8.0 0.00 0.00 0.00 49 1009.9
20260503183025 8 290 1.6 3.2 0.00 0.00 0.00 49 1009.7
20260503182524 8 324 4.8 11.3 0.00 0.00 0.00 45 1010.0
20260503182021 8 313 3.2 3.2 0.00 0.00 0.00 48 1009.9
20260503181518 8 296 1.6 1.6 0.00 0.00 0.00 49 1009.9
20260503181014 8 292 3.2 3.2 0.00 0.00 0.00 49 1009.8
20260503180512 8 316 1.6 1.6 0.00 0.00 0.00 49 1009.9
20260503180009 8 296 3.2 4.8 0.00 0.00 0.00 50 1009.8
20260503175506 8 321 3.2 3.2 0.00 0.00 0.00 50 1009.8
20260503175003 8 259 3.2 3.2 0.00 0.00 0.00 48 1010.0
20260503174501 8 317 1.6 1.6 0.00 0.00 0.00 47 1009.9
20260503173955 8 294 0.0 0.0 0.00 0.00 0.00 50 1009.9
20260503173451 8 295 1.6 1.6 0.00 0.00 0.00 50 1009.9
20260503172948 8 307 1.6 3.2 0.00 0.00 0.00 49 1009.9
20260503172446 8 303 4.8 4.8 0.00 0.00 0.00 48 1009.8
20260503171942 7 300 3.2 3.2 0.00 0.00 0.00 52 1009.8
20260503171439 7 271 4.8 8.0 0.00 0.00 0.00 51 1009.8
20260503170937 7 293 3.2 4.8 0.00 0.00 0.00 51 1009.8
20260503170432 7 276 1.6 1.6 0.00 0.00 0.00 52 1009.6
20260503150825 8 301 0.0 0.0 0.00 0.00 0.00 56 1010.3
20260503150321 7 324 4.8 4.8 0.00 0.00 0.00 60 1010.3
20260503140245 5 290 0.0 0.0 0.00 0.00 0.00 76 1010.6